FW8116 Weather Reports


Display with metric or nautical units.
time (UTC)temp
F
wind
direction
speed
MPH
gust
MPH
rain 1hr
in
rain 24hr
in
rain mn
in
humidity
%
barometer
mb
20260502170511 52 0 0.0 3.0 0.01 0.16 0.16 95 1013.1
20260502164016 52 0 0.0 2.0 0.01 0.15 0.15 95 1013.4
20260502163511 52 0 0.0 2.0 0.01 0.15 0.15 95 1013.5
20260502163032 52 0 0.0 1.0 0.01 0.15 0.15 95 1013.7
20260502162513 52 0 0.0 1.0 0.01 0.15 0.15 95 1013.9
20260502162014 52 0 0.0 3.0 0.01 0.15 0.15 95 1013.9
20260502161529 52 0 0.0 3.0 0.01 0.15 0.15 95 1014.1
20260502161013 52 0 0.0 1.0 0.01 0.15 0.15 95 1014.0
20260502160516 52 0 0.0 2.0 0.02 0.15 0.15 95 1014.0
20260502152010 52 0 0.0 1.0 0.03 0.14 0.14 95 1013.7
20260502151531 52 0 0.0 1.0 0.03 0.14 0.14 95 1013.6
20260502151015 52 0 0.0 1.0 0.04 0.14 0.14 95 1013.6
20260502150512 52 0 0.0 0.0 0.03 0.13 0.13 95 1013.9
20260502130513 52 313 0.0 5.0 0.03 0.04 0.04 93 1012.6
20260502123510 52 0 0.0 3.0 0.02 0.02 0.02 92 1012.4
20260502123028 52 0 0.0 2.0 0.02 0.02 0.02 92 1012.3
20260502122512 52 0 0.0 2.0 0.02 0.02 0.02 92 1012.1
20260502122015 52 0 0.0 0.0 0.02 0.02 0.02 92 1012.2
20260502121530 52 0 0.0 1.0 0.01 0.01 0.01 92 1012.3
20260502121014 52 0 0.0 1.0 0.01 0.01 0.01 91 1012.3
20260502120514 52 0 0.0 1.0 0.01 0.01 0.01 91 1012.2
20260502115514 52 0 0.0 2.0 0.01 0.01 0.01 90 1012.3
20260502115017 52 0 0.0 2.0 0.01 0.01 0.01 90 1012.4
20260502114530 52 0 0.0 1.0 0.01 0.01 0.01 90 1012.5
20260502114013 52 0 0.0 3.0 0.00 0.00 0.00 89 1012.3
20260502113513 52 0 0.0 3.0 0.00 0.00 0.00 89 1012.3
20260502113028 52 321 0.0 3.0 0.00 0.00 0.00 89 1012.4
20260502112510 52 0 0.0 3.0 0.00 0.00 0.00 88 1012.5
20260502112011 53 344 0.0 3.0 0.00 0.00 0.00 88 1012.5
20260502111527 53 336 0.0 3.0 0.00 0.00 0.00 88 1012.6
20260502111014 53 0 0.0 3.0 0.00 0.00 0.00 87 1012.7
20260502110513 53 0 0.0 2.0 0.00 0.00 0.00 87 1012.8
20260502110030 53 0 0.0 3.0 0.00 0.00 0.00 86 1012.7
20260502105512 53 0 0.0 5.0 0.00 0.00 0.00 86 1012.5
20260502105011 53 298 1.0 9.0 0.00 0.00 0.00 85 1012.4
20260502104539 54 338 1.0 9.0 0.00 0.00 0.00 86 1012.5
20260502104010 54 15 2.0 7.0 0.00 0.00 0.00 86 1012.4
20260502103511 54 315 1.0 5.0 0.00 0.00 0.00 87 1012.7
20260502103028 54 338 1.0 4.0 0.00 0.00 0.00 87 1012.7
20260502102510 54 307 1.0 4.0 0.00 0.00 0.00 88 1012.9
20260502102010 53 0 0.0 2.0 0.00 0.00 0.00 88 1012.5
20260502101534 53 0 0.0 2.0 0.00 0.00 0.00 89 1012.6
20260502101010 53 0 0.0 5.0 0.00 0.00 0.00 89 1012.5
20260502100510 53 300 0.0 5.0 0.00 0.00 0.00 90 1012.5
20260502091014 53 0 0.0 2.0 0.00 0.00 0.00 90 1012.4
20260502090510 53 0 0.0 2.0 0.00 0.00 0.00 90 1012.4
20260502071532 52 0 0.0 0.0 0.00 0.00 0.00 91 1011.8
20260502071014 52 0 0.0 0.0 0.00 0.00 0.00 91 1011.8
20260502070513 52 0 0.0 0.0 0.00 0.00 0.00 91 1011.9
20260502070032 52 0 0.0 0.0 0.00 0.00 0.00 91 1011.7
20260502065510 52 0 0.0 0.0 0.00 0.00 0.00 91 1011.6
20260502065015 52 0 0.0 0.0 0.00 0.00 0.00 90 1011.7
20260502064534 52 0 0.0 0.0 0.00 0.00 0.00 90 1011.7
20260502064014 52 0 0.0 0.0 0.00 0.00 0.00 90 1011.7
20260502063512 52 0 0.0 0.0 0.00 0.00 0.00 90 1011.9
20260502063031 52 0 0.0 0.0 0.00 0.00 0.00 90 1011.9
20260502062513 52 0 0.0 0.0 0.00 0.00 0.00 90 1012.1
20260502062016 52 0 0.0 0.0 0.00 0.00 0.00 90 1011.9
20260502061534 52 0 0.0 0.0 0.00 0.00 0.00 90 1011.9
20260502061012 52 0 0.0 0.0 0.00 0.00 0.00 90 1011.9
20260502060513 52 0 0.0 0.0 0.00 0.00 0.00 90 1011.9
20260502060028 52 0 0.0 0.0 0.00 0.00 0.00 90 1011.9
20260502055513 52 0 0.0 0.0 0.00 0.00 0.00 90 1012.0
20260502055014 52 0 0.0 0.0 0.00 0.00 0.00 90 1012.0
20260502054530 52 0 0.0 0.0 0.00 0.00 0.00 90 1012.2
20260502054016 52 0 0.0 0.0 0.00 0.00 0.00 89 1012.1
20260502053510 53 0 0.0 0.0 0.00 0.00 0.00 90 1012.3
20260502053030 52 0 0.0 0.0 0.00 0.00 0.00 90 1012.3
20260502052514 53 0 0.0 0.0 0.00 0.00 0.00 89 1012.3
20260502052013 53 0 0.0 0.0 0.00 0.00 0.00 89 1012.3
20260502051528 53 0 0.0 0.0 0.00 0.00 0.00 89 1012.4
20260502051014 53 0 0.0 0.0 0.00 0.00 0.00 89 1012.4
20260502050511 53 0 0.0 0.0 0.00 0.00 0.00 89 1012.5
20260502050030 53 0 0.0 0.0 0.00 0.00 0.00 89 1012.7
20260502045513 53 0 0.0 0.0 0.00 0.00 0.00 89 1012.4
20260502045014 53 0 0.0 0.0 0.00 0.00 0.00 88 1012.5
20260502044529 53 0 0.0 0.0 0.00 0.00 0.00 88 1012.5
20260502044013 53 0 0.0 0.0 0.00 0.00 0.00 88 1012.8
20260502043513 53 0 0.0 0.0 0.00 0.00 0.00 88 1012.5
20260502043030 53 0 0.0 0.0 0.00 0.00 0.00 88 1012.6
20260502042515 53 0 0.0 0.0 0.00 0.00 0.00 88 1012.6
20260502042013 53 0 0.0 0.0 0.00 0.00 0.00 87 1012.8
20260502041536 53 0 0.0 0.0 0.00 0.00 0.00 87 1012.8
20260502041013 53 0 0.0 0.0 0.00 0.00 0.00 87 1012.9
20260502040517 53 0 0.0 0.0 0.00 0.00 0.00 87 1012.9
20260502040030 53 0 0.0 1.0 0.00 0.00 0.00 87 1013.0
20260502035514 53 0 0.0 1.0 0.00 0.00 0.00 87 1013.0
20260502035014 53 0 0.0 1.0 0.00 0.00 0.00 87 1013.0
20260502034532 53 0 0.0 1.0 0.00 0.00 0.00 87 1013.1
20260502034016 53 0 0.0 1.0 0.00 0.00 0.00 88 1013.0
20260502033514 53 0 0.0 1.0 0.00 0.00 0.00 88 1013.0
20260502033031 53 0 0.0 1.0 0.00 0.00 0.00 88 1012.8
20260502032513 53 0 0.0 1.0 0.00 0.00 0.00 88 1013.0
20260502032013 53 0 0.0 1.0 0.00 0.00 0.00 87 1013.0
20260502031530 53 0 0.0 1.0 0.00 0.00 0.00 87 1013.0
20260502031013 53 0 0.0 1.0 0.00 0.00 0.00 87 1013.1
20260502030517 53 0 0.0 0.0 0.00 0.00 0.00 87 1013.1
20260502030030 53 0 0.0 0.0 0.00 0.00 0.00 87 1013.2
20260502025515 53 0 0.0 0.0 0.00 0.00 0.00 86 1013.3
20260502025013 53 0 0.0 1.0 0.00 0.00 0.00 87 1013.3
20260502024535 53 0 0.0 2.0 0.00 0.00 0.00 86 1013.3
20260502024010 53 0 0.0 3.0 0.00 0.00 0.00 86 1013.4
20260502023513 53 0 0.0 3.0 0.00 0.00 0.00 86 1013.2
20260502023028 53 0 0.0 0.0 0.00 0.00 0.00 86 1013.3
20260502022513 53 0 0.0 0.0 0.00 0.00 0.00 86 1013.4
20260502022019 53 0 0.0 0.0 0.00 0.00 0.00 86 1013.5
20260502021530 53 0 0.0 0.0 0.00 0.00 0.00 86 1013.5
20260502021013 53 0 0.0 0.0 0.00 0.00 0.00 86 1013.4
20260502020513 53 0 0.0 0.0 0.00 0.00 0.00 86 1013.3
20260502020030 53 0 0.0 0.0 0.00 0.00 0.00 86 1013.4
20260502015513 53 0 0.0 0.0 0.00 0.00 0.00 85 1013.4
20260502015018 53 0 0.0 0.0 0.00 0.00 0.00 85 1013.3
20260502014532 54 0 0.0 0.0 0.00 0.00 0.00 85 1013.3
20260502014013 54 0 0.0 0.0 0.00 0.00 0.00 85 1013.3
20260502013510 54 0 0.0 0.0 0.00 0.00 0.00 85 1013.3
20260502013029 54 0 0.0 1.0 0.00 0.00 0.00 85 1013.4
20260502012513 54 0 0.0 1.0 0.00 0.00 0.00 85 1013.4
20260502012016 53 0 0.0 0.0 0.00 0.00 0.00 85 1013.3
20260502011550 53 0 0.0 0.0 0.00 0.00 0.00 85 1013.4
20260502011014 53 0 0.0 0.0 0.00 0.00 0.00 84 1013.1
20260502010513 53 0 0.0 0.0 0.00 0.00 0.00 84 1012.8
20260502010031 53 0 0.0 0.0 0.00 0.00 0.00 84 1012.7
20260502005513 53 0 0.0 0.0 0.00 0.00 0.00 84 1012.9
20260502005013 53 0 0.0 0.0 0.00 0.00 0.00 84 1013.1
20260502004550 53 0 0.0 0.0 0.00 0.00 0.00 84 1012.8
20260502004010 53 0 0.0 0.0 0.00 0.00 0.00 84 1012.5
20260502003510 53 0 0.0 0.0 0.00 0.00 0.00 83 1012.6
20260502003029 53 0 0.0 0.0 0.00 0.00 0.00 83 1012.5
20260502002514 53 0 0.0 0.0 0.00 0.00 0.00 82 1012.5
20260502002013 53 0 0.0 0.0 0.00 0.00 0.00 81 1012.3
20260502001537 53 0 0.0 0.0 0.00 0.00 0.00 81 1012.3
20260502001013 54 0 0.0 0.0 0.00 0.00 0.00 80 1012.4
20260502000513 54 0 0.0 0.0 0.00 0.00 0.00 80 1012.4
20260502000031 54 0 0.0 0.0 0.00 0.00 0.00 79 1012.6
20260501235519 54 0 0.0 1.0 0.00 0.00 0.00 79 1012.6
20260501235010 54 0 0.0 1.0 0.00 0.00 0.00 79 1012.5
20260501234537 54 0 0.0 3.0 0.00 0.00 0.00 78 1012.5
20260501234013 54 0 0.0 3.0 0.00 0.00 0.00 77 1012.5
20260501233513 55 161 0.0 2.0 0.00 0.00 0.00 78 1012.4
20260501233030 55 0 0.0 2.0 0.00 0.00 0.00 78 1012.5
20260501232518 55 136 0.0 1.0 0.00 0.00 0.00 78 1012.6
20260501232012 55 0 0.0 1.0 0.00 0.00 0.00 77 1012.4
20260501231538 55 0 0.0 1.0 0.00 0.00 0.00 77 1012.5
20260501231011 55 0 0.0 1.0 0.00 0.00 0.00 77 1012.5
20260501230513 56 0 0.0 1.0 0.00 0.00 0.00 76 1012.5
20260501230028 56 0 0.0 2.0 0.00 0.00 0.00 76 1012.5
20260501225513 56 0 0.0 2.0 0.00 0.00 0.00 75 1012.4
20260501225016 56 128 0.0 2.0 0.00 0.00 0.00 74 1012.6
20260501224531 56 139 0.0 3.0 0.00 0.00 0.00 75 1012.6
20260501224013 56 0 0.0 4.0 0.00 0.00 0.00 75 1012.9
20260501223514 56 264 1.0 4.0 0.00 0.00 0.00 74 1013.0
20260501223029 56 258 1.0 3.0 0.00 0.00 0.00 75 1013.1
20260501222510 56 242 0.0 3.0 0.00 0.00 0.00 75 1013.1
20260501222013 56 0 0.0 4.0 0.00 0.00 0.00 75 1013.2
20260501221529 56 0 0.0 4.0 0.00 0.00 0.00 76 1013.3
20260501221010 56 220 0.0 3.0 0.00 0.00 0.00 78 1013.3
20260501220510 56 243 0.0 3.0 0.00 0.00 0.00 77 1013.4
20260501220039 56 166 1.0 4.0 0.00 0.00 0.00 76 1013.4
20260501215511 55 254 1.0 4.0 0.00 0.00 0.00 76 1013.4
20260501215013 56 132 1.0 4.0 0.00 0.00 0.00 76 1013.3
20260501214531 56 257 1.0 5.0 0.00 0.00 0.00 76 1013.4
20260501214013 56 280 0.0 5.0 0.00 0.00 0.00 76 1013.2
20260501213514 56 0 0.0 3.0 0.00 0.00 0.00 76 1013.4
20260501213032 56 0 0.0 6.0 0.00 0.00 0.00 77 1013.3
20260501212509 55 120 1.0 6.0 0.00 0.00 0.00 76 1013.2
20260501212009 55 0 1.0 6.0 0.00 0.00 0.00 76 1013.4
20260501211528 55 169 1.0 4.0 0.00 0.00 0.00 75 1013.4
20260501211010 55 169 1.0 6.0 0.00 0.00 0.00 74 1013.4
20260501210509 55 35 1.0 6.0 0.00 0.00 0.00 74 1013.4
20260501210028 55 233 1.0 4.0 0.00 0.00 0.00 74 1013.6
20260501205510 55 265 0.0 4.0 0.00 0.00 0.00 75 1013.5
20260501205011 55 167 1.0 4.0 0.00 0.00 0.00 75 1013.7
20260501204529 55 169 1.0 3.0 0.00 0.00 0.00 75 1013.5
20260501204013 55 176 0.0 4.0 0.00 0.00 0.00 75 1013.6
20260501203509 56 217 1.0 4.0 0.00 0.00 0.00 74 1013.7
20260501203030 56 0 1.0 7.0 0.00 0.00 0.00 72 1013.5
20260501202515 57 141 1.0 7.0 0.00 0.00 0.00 69 1013.6
20260501202008 58 151 1.0 6.0 0.00 0.00 0.00 68 1013.6
20260501201528 59 217 2.0 6.0 0.00 0.00 0.00 65 1013.4
20260501201014 60 193 1.0 5.0 0.00 0.00 0.00 62 1013.7
20260501200524 61 136 1.0 6.0 0.00 0.00 0.00 59 1013.8
20260501200028 62 121 1.0 6.0 0.00 0.00 0.00 59 1013.8
20260501195510 62 0 0.0 5.0 0.00 0.00 0.00 58 1013.8
20260501195009 62 88 1.0 5.0 0.00 0.00 0.00 58 1013.9
20260501194530 62 166 0.0 5.0 0.00 0.00 0.00 56 1013.9
20260501194009 63 160 1.0 5.0 0.00 0.00 0.00 57 1013.7
20260501193510 63 84 1.0 4.0 0.00 0.00 0.00 56 1013.8
20260501193036 64 110 0.0 5.0 0.00 0.00 0.00 56 1013.5
20260501192510 64 239 1.0 5.0 0.00 0.00 0.00 53 1013.8
20260501192013 65 164 1.0 5.0 0.00 0.00 0.00 56 1013.8
20260501191534 65 0 0.0 5.0 0.00 0.00 0.00 57 1014.0
20260501191014 65 192 1.0 5.0 0.00 0.00 0.00 57 1014.1
20260501190515 65 0 1.0 5.0 0.00 0.00 0.00 54 1014.1
20260501190049 64 213 2.0 5.0 0.00 0.00 0.00 55 1014.2
20260501185513 65 0 1.0 5.0 0.00 0.00 0.00 54 1014.2
20260501185013 64 246 1.0 5.0 0.00 0.00 0.00 57 1014.5
20260501184535 64 169 1.0 5.0 0.00 0.00 0.00 54 1014.5
20260501184012 64 0 1.0 8.0 0.00 0.00 0.00 54 1014.6
20260501183513 64 0 1.0 8.0 0.00 0.00 0.00 54 1014.7
20260501183029 64 279 2.0 8.0 0.00 0.00 0.00 55 1014.7
20260501182512 63 238 2.0 6.0 0.00 0.00 0.00 54 1014.7
20260501182012 63 0 1.0 5.0 0.00 0.00 0.00 55 1014.7
20260501181530 63 116 1.0 5.0 0.00 0.00 0.00 57 1014.6
20260501181011 63 15 0.0 3.0 0.00 0.00 0.00 53 1014.6
20260501180516 64 182 1.0 6.0 0.00 0.00 0.00 53 1014.6
20260501180031 63 0 1.0 6.0 0.00 0.00 0.00 54 1014.9
20260501175514 63 261 2.0 6.0 0.00 0.00 0.00 52 1014.6
20260501175013 64 257 2.0 6.0 0.00 0.00 0.00 52 1014.9
20260501174531 64 162 1.0 4.0 0.00 0.00 0.00 53 1015.0
20260501174014 64 133 1.0 4.0 0.00 0.00 0.00 51 1014.7
20260501173513 64 288 1.0 5.0 0.00 0.00 0.00 55 1014.7
20260501173030 63 0 1.0 5.0 0.00 0.00 0.00 57 1014.7
20260501172511 63 276 0.0 5.0 0.00 0.00 0.00 62 1014.6
20260501172015 63 164 1.0 4.0 0.00 0.00 0.00 56 1014.8